Theta_e
319 319 319 319 320 321 321 321 321 322 322 322 322 322 323 323 323 322 322 323 323 324 324 324 325 325 325 325 325 325 324 322 320 316 314 318 328 338 337 335 333 333 331 317 315 312 309 310 309 311 312 313 315 311 318 316 314 312 302 298 295 296 296 300 299 300 301 298 299 302 303 301 299 303 305 304 303 302 303 303 305 306 306 308 308 309 311 313
318 319 319 319 320 321 321 321 321 321 321 321 321 322 322 323 322 322 322 322 323 323 323 324 324 325 325 325 325 325 322 323 317 314 313 333 336 338 338 334 333 333 328 317 312 310 308 308 309 309 310 307 320 311 313 312 315 306 300 299 294 299 300 304 302 302 300 300 302 302 302 301 301 301 304 300 300 301 301 302 303 303 304 307 308 309 308 312
318 319 319 319 319 320 320 321 321 321 321 321 320 321 321 321 321 322 322 322 323 323 323 324 324 324 324 325 325 324 322 324 317 312 322 329 338 337 338 336 333 334 320 315 313 312 310 309 310 308 308 304 309 307 313 308 309 305 301 295 297 302 303 304 304 303 304 303 302 302 302 301 302 302 305 300 299 300 299 300 300 301 302 303 304 307 308 308
318 319 319 318 319 319 320 320 320 321 321 321 320 321 321 320 320 321 322 322 323 323 323 323 323 324 324 324 325 322 323 326 314 315 327 334 338 337 339 336 332 330 323 318 314 313 312 311 309 309 309 304 306 309 306 308 305 305 301 297 300 301 300 302 304 304 304 304 302 302 302 301 302 302 303 301 298 299 301 303 302 301 302 304 304 305 305 305
318 318 318 318 319 319 319 319 320 321 321 320 321 321 320 321 321 321 322 322 322 322 323 323 323 323 323 324 323 324 324 310 310 323 325 335 337 338 339 336 333 323 319 316 314 313 312 308 307 310 308 300 305 304 303 306 306 307 300 303 303 303 300 303 303 303 303 304 303 302 300 300 303 303 301 300 297 297 300 303 304 304 305 305 305 305 305 305
319 318 318 318 320 320 319 319 320 321 321 321 321 321 321 321 322 321 322 322 322 322 322 323 323 322 323 323 321 322 318 294 309 322 333 337 340 340 338 336 333 322 316 315 311 311 309 307 306 305 301 300 299 297 301 305 308 298 302 303 304 304 301 304 304 304 302 303 301 301 302 303 301 300 302 301 300 303 306 306 306 307 307 307 307 306 305 304
319 318 318 319 320 319 319 320 320 321 321 321 321 321 322 322 322 322 322 321 322 322 322 322 322 322 322 322 321 316 312 308 320 333 334 339 339 339 337 335 331 325 317 312 310 309 307 305 305 302 302 301 301 300 302 302 305 302 299 302 302 303 301 303 302 302 301 301 301 303 303 301 300 297 301 300 303 305 306 306 306 307 307 307 306 306 305 305
319 318 318 319 320 318 318 319 320 320 321 321 321 322 322 322 322 322 321 322 321 322 322 322 322 321 321 320 324 316 314 307 322 333 330 337 335 333 331 328 320 321 314 310 309 307 308 304 302 306 301 298 301 300 302 302 302 299 300 303 303 302 302 302 302 302 302 302 303 302 300 300 301 300 301 300 303 305 305 306 306 306 306 306 305 304 304 304
318 317 318 319 319 318 318 319 319 320 320 321 321 321 322 322 322 322 321 321 322 321 322 322 321 322 322 319 316 305 304 325 325 332 337 333 327 325 324 316 317 314 312 311 310 310 311 305 304 305 299 300 303 300 301 299 296 300 300 300 301 301 303 302 302 301 301 302 302 300 300 301 301 303 300 302 303 305 305 304 305 305 304 304 303 302 303 303
319 317 318 318 318 318 318 318 319 320 320 321 321 321 322 322 322 322 321 321 321 321 321 322 322 321 318 320 314 300 319 312 330 333 333 329 324 320 319 323 314 313 311 310 310 309 307 307 311 309 307 302 304 300 302 300 297 301 300 300 300 300 300 301 300 301 301 300 300 298 299 299 301 300 295 302 303 304 303 303 303 303 303 303 303 303 303 302
319 318 320 318 317 318 318 318 319 319 320 320 321 321 322 321 322 321 321 320 321 321 321 321 322 319 319 312 305 303 320 325 326 328 329 327 320 317 318 323 314 313 311 312 309 311 310 309 316 311 310 301 301 300 300 300 301 300 300 299 299 299 300 300 300 300 300 299 300 300 298 300 300 300 297 301 303 303 302 303 303 302 302 303 303 303 303 303
319 320 319 319 318 318 318 319 319 320 320 320 321 321 321 321 321 321 320 320 321 321 321 321 321 318 315 310 304 310 316 322 328 324 323 322 322 324 323 316 315 320 314 309 314 318 317 314 315 307 298 305 297 301 299 299 301 299 298 294 296 298 297 299 299 300 300 299 300 300 295 295 296 294 300 302 303 303 301 301 301 301 302 301 302 303 301 301
320 320 320 320 319 319 320 320 321 320 321 321 321 321 321 321 320 320 319 320 321 321 321 321 319 319 318 304 308 319 318 322 325 323 325 321 319 318 318 320 316 313 314 312 311 313 315 313 310 303 306 303 300 296 301 300 300 300 298 295 294 295 294 300 302 301 299 299 299 298 287 291 297 300 302 304 303 302 300 300 301 301 301 301 301 301 301 301
320 321 320 320 319 320 322 322 322 322 322 322 322 321 321 321 320 319 320 319 320 319 320 321 320 316 313 303 311 315 316 321 319 320 321 321 317 321 320 320 320 314 319 316 313 311 315 308 312 307 307 302 299 307 300 299 300 294 297 296 291 290 290 300 301 296 297 298 299 298 289 291 297 300 302 302 302 301 300 300 300 301 301 300 300 301 302 302
321 321 321 321 320 320 321 322 322 323 323 322 322 321 320 320 319 319 319 321 321 321 320 319 319 316 302 303 308 315 320 316 313 317 322 315 314 316 315 315 318 316 311 310 312 311 308 315 311 303 300 305 303 299 295 295 295 296 291 288 292 289 292 299 302 297 296 296 298 296 289 291 295 299 301 301 301 301 299 299 300 300 301 301 300 300 300 301
321 321 321 321 321 321 321 321 321 322 322 322 322 321 320 319 318 318 319 320 319 321 320 317 315 315 303 300 313 322 317 309 309 317 314 318 318 314 314 315 314 314 311 308 311 315 308 309 302 302 301 302 297 293 292 291 293 294 291 289 290 292 293 296 300 298 299 296 296 295 289 293 294 299 300 301 300 300 299 299 300 300 301 300 299 301 301 299
321 321 321 321 321 321 322 322 321 321 322 321 321 321 321 317 318 318 320 320 320 319 319 312 311 307 299 309 308 308 306 313 313 316 316 314 314 314 311 310 306 307 308 306 308 311 306 303 304 301 301 296 296 296 288 287 288 291 294 291 294 292 293 291 299 299 298 296 292 295 291 291 294 297 299 300 300 299 299 299 299 300 298 299 300 299 298 298
322 322 322 321 322 322 322 322 321 322 322 322 320 322 319 319 319 317 316 319 322 319 317 318 311 309 302 307 302 305 310 308 318 315 315 311 315 311 309 305 306 304 304 302 305 301 304 298 300 296 297 295 294 292 287 285 289 291 291 290 292 294 294 294 293 296 295 295 293 292 292 292 294 297 298 300 301 300 298 299 299 299 298 299 299 298 297 296
322 322 322 322 322 322 322 321 322 322 322 322 323 318 320 320 319 320 318 315 314 311 304 301 303 298 299 304 307 308 315 313 314 313 306 311 316 311 311 309 308 302 300 298 298 300 302 300 302 295 290 293 293 293 291 293 295 293 294 292 293 290 291 292 297 300 300 296 294 293 292 293 295 296 297 299 300 299 298 299 299 299 298 298 298 297 296 295
322 322 322 322 322 322 322 322 323 322 322 320 321 320 316 316 313 308 308 311 305 307 308 308 306 306 306 308 308 309 316 316 306 313 311 317 310 307 305 305 308 303 299 296 298 298 301 292 289 288 293 296 298 298 297 297 297 296 295 294 292 292 293 296 297 300 295 294 292 293 292 292 293 295 297 299 299 298 298 298 298 298 297 297 296 296 295 295
323 323 323 323 322 322 322 323 323 322 321 320 319 316 307 305 303 303 304 308 311 312 310 311 312 310 309 311 308 306 306 305 308 309 314 317 309 305 301 302 300 296 297 301 298 301 299 292 292 296 297 298 299 300 299 297 296 295 294 292 292 293 291 296 296 299 296 293 291 293 292 292 294 296 297 299 298 297 298 297 297 296 296 296 295 294 294 295
322 323 323 322 322 322 323 323 323 322 321 321 319 311 309 307 309 310 306 302 312 314 313 313 314 311 315 314 313 313 310 305 304 308 314 314 305 300 301 300 298 295 299 299 297 294 292 290 295 299 300 300 300 299 299 296 295 295 292 291 290 291 294 297 297 298 295 293 289 292 290 292 294 296 297 298 298 298 298 297 296 295 295 295 295 294 294 294
321 322 323 323 322 322 322 322 322 321 320 319 317 312 309 310 313 313 310 303 301 309 309 310 309 310 310 313 307 309 303 301 302 305 306 311 303 301 302 298 298 298 299 299 294 293 289 294 297 300 300 298 298 298 297 296 295 292 291 288 287 292 291 288 294 293 294 292 289 291 290 291 295 296 297 298 299 298 298 298 297 296 294 294 294 294 293 292
322 322 322 322 322 322 323 322 321 322 321 319 314 312 313 314 314 312 306 299 301 308 310 310 310 309 308 307 306 306 302 304 304 304 308 307 301 303 301 300 298 298 296 298 297 295 294 299 302 300 299 298 296 297 295 293 291 294 293 291 291 292 293 292 291 294 294 294 294 292 289 289 292 292 294 298 299 297 297 296 296 296 296 295 295 294 294 292
321 321 321 322 321 321 321 320 319 320 319 317 313 314 312 315 313 312 304 300 302 302 312 312 313 312 306 312 309 303 305 305 305 305 306 306 304 300 300 304 300 296 297 299 298 296 296 300 301 298 298 297 296 293 295 294 290 291 294 295 294 294 293 293 293 291 288 286 293 291 282 284 291 293 295 298 296 294 294 294 294 294 294 293 292 292 293 293
321 321 321 321 320 321 319 317 319 321 318 315 313 313 314 313 315 311 303 296 292 303 306 301 312 301 310 301 309 304 304 299 300 307 307 307 306 302 301 299 301 295 298 298 297 297 297 298 300 298 296 296 295 293 295 296 290 289 290 294 294 293 293 292 291 290 282 281 289 291 283 281 290 291 294 296 296 292 293 293 293 293 293 292 292 292 291 291
321 321 320 320 320 320 317 313 319 319 313 314 315 314 314 313 316 310 300 295 291 304 301 300 304 304 309 302 304 304 291 296 305 303 305 309 302 306 297 297 298 300 299 299 294 292 298 297 295 296 296 294 293 291 295 295 291 287 294 295 295 292 292 292 292 289 285 290 292 291 288 281 283 289 294 296 296 292 291 291 292 292 292 291 291 291 290 290
321 321 320 321 321 319 319 320 319 315 315 315 316 313 313 314 314 309 299 285 285 306 299 299 301 308 307 301 306 298 296 300 296 298 302 307 303 301 298 297 297 296 297 296 286 296 295 294 294 294 293 291 291 295 299 297 293 291 294 294 292 291 292 291 289 286 286 285 281 286 290 282 281 288 295 296 293 290 289 290 291 291 291 291 291 291 290 290
319 320 319 320 320 319 321 319 318 315 316 316 314 313 314 314 308 302 293 283 302 300 310 297 311 304 301 302 298 298 297 298 294 299 306 305 306 300 294 297 296 296 297 297 291 295 296 295 297 297 293 290 295 292 295 297 292 295 295 294 294 293 293 291 285 285 284 282 280 283 289 282 283 290 291 293 293 289 288 290 291 291 291 290 290 290 290 290
316 318 318 319 319 319 319 319 316 316 316 314 313 312 311 307 303 293 288 281 304 293 300 299 297 297 299 295 295 297 295 297 298 299 300 299 301 304 298 298 296 295 294 296 294 295 293 295 296 294 294 296 291 292 294 295 294 296 296 293 291 291 288 288 286 285 283 278 281 287 289 286 279 287 289 289 291 289 289 289 290 290 290 290 290 290 290 289
313 314 316 318 317 319 319 313 318 311 312 311 310 311 309 308 296 288 282 292 299 301 299 298 296 298 296 294 293 296 296 296 296 298 294 299 296 298 297 292 299 292 288 289 288 294 292 294 293 294 297 294 294 292 292 294 296 295 290 288 287 286 286 284 283 283 277 278 283 288 289 289 278 281 289 290 292 292 291 289 289 288 288 289 289 289 289 288
311 312 313 318 320 321 315 314 313 312 310 310 311 310 307 293 297 284 285 300 291 297 298 296 299 298 296 297 296 294 293 295 296 296 293 292 291 291 291 289 290 284 284 284 285 290 288 290 294 296 296 294 292 290 291 293 292 290 288 286 282 281 282 278 280 275 277 277 283 286 289 284 284 288 292 292 291 292 292 291 290 289 288 288 288 288 288 287
310 310 312 313 315 318 318 312 313 312 312 312 312 310 298 289 281 291 291 296 291 303 297 304 298 296 298 297 295 297 297 293 296 295 297 296 293 293 296 294 297 292 285 288 286 287 288 291 293 293 294 294 294 286 285 284 287 287 285 283 281 277 276 274 277 280 280 283 282 285 287 281 286 289 292 290 289 290 290 290 289 288 287 287 287 287 287 287
309 310 315 315 316 318 313 312 312 313 312 313 310 302 295 285 284 297 295 295 297 300 300 300 298 297 297 294 299 298 293 297 294 294 295 294 293 290 294 296 296 295 293 288 284 284 281 283 290 292 288 295 293 292 292 291 287 287 290 287 282 281 278 272 277 274 276 279 284 286 281 279 278 285 287 289 289 289 288 288 288 288 287 287 286 286 286 285
308 309 313 314 315 317 314 312 312 313 314 311 305 296 286 285 289 290 290 295 299 299 298 299 298 296 295 296 299 297 297 293 296 295 293 292 290 290 292 293 296 296 294 286 289 285 287 286 293 296 293 293 292 296 295 293 289 291 291 292 285 282 287 281 282 280 280 280 280 281 280 283 287 289 289 289 289 288 288 287 287 286 286 286 285 285 285 285
308 313 314 312 314 317 314 313 313 314 313 308 298 290 287 290 288 295 294 302 299 298 297 297 299 294 292 291 298 297 301 294 296 296 294 293 294 292 296 296 294 295 291 285 290 283 287 283 291 295 291 291 292 294 294 295 281 287 287 282 286 291 290 283 283 285 282 281 279 284 284 288 290 288 288 287 286 286 286 286 286 285 285 285 284 284 284 285
309 312 306 311 313 316 315 313 313 312 311 305 294 287 293 295 299 297 301 299 297 298 297 289 291 292 292 290 292 296 297 296 295 293 289 297 292 296 294 297 298 296 296 294 289 295 285 288 294 293 292 292 293 293 293 295 295 287 281 286 292 294 292 285 278 281 279 277 279 284 280 282 282 279 286 286 284 285 285 285 285 285 285 284 284 283 284 284
307 308 308 309 314 315 314 313 313 312 308 301 291 292 298 293 300 298 302 300 298 298 294 292 292 297 290 290 290 295 297 293 293 293 290 294 289 298 296 295 294 294 296 297 290 290 292 282 290 294 294 293 293 294 292 294 296 289 288 294 285 281 281 285 283 276 277 276 278 281 282 282 283 284 285 284 283 284 284 285 284 284 283 283 283 283 283 284
307 306 300 307 316 315 312 314 313 309 302 294 291 289 295 296 299 300 300 299 300 298 292 294 291 294 293 290 292 295 295 288 294 291 288 292 287 296 294 298 294 294 295 295 290 292 289 282 285 294 292 293 293 290 282 286 291 294 294 288 293 286 284 282 284 283 282 277 277 277 281 278 287 285 287 287 285 285 284 284 283 283 284 283 283 283 283 283
303 300 298 314 316 315 314 314 308 304 299 290 291 291 299 296 299 300 300 300 297 296 294 293 295 291 293 293 295 291 295 294 292 291 292 294 291 298 294 298 293 293 295 296 295 296 285 291 280 288 292 292 282 287 283 287 282 283 284 282 286 284 287 285 283 281 279 276 276 275 275 280 285 287 286 286 286 285 285 283 283 283 283 283 283 283 283 283
306 301 301 313 315 314 314 309 301 297 295 296 297 295 296 295 300 300 301 302 300 301 297 295 293 291 293 292 291 294 292 292 293 290 292 292 292 287 297 297 298 293 294 294 293 293 285 286 282 285 284 282 285 291 291 291 291 287 285 282 286 282 281 278 277 285 281 280 277 277 275 281 287 288 288 286 286 286 285 284 283 283 283 283 283 283 283 284
300 292 299 312 314 314 307 297 298 301 297 293 292 296 295 302 299 299 299 301 300 298 301 298 297 296 295 294 295 294 292 291 292 291 292 290 295 294 297 299 298 299 294 288 290 296 291 286 283 281 284 286 290 292 294 293 292 291 290 287 290 287 285 280 276 278 281 281 282 280 278 279 283 285 285 285 286 285 285 285 284 284 284 284 284 284 284 284
297 294 305 310 314 312 303 296 298 297 295 298 302 300 301 300 299 300 297 299 296 299 298 296 295 294 296 295 295 293 294 289 293 291 292 292 294 297 300 301 302 299 295 291 295 294 293 283 282 284 287 289 292 294 294 294 292 289 289 290 287 283 284 282 280 280 277 279 278 277 276 278 282 285 284 284 283 283 285 285 284 284 284 283 283 283 282 282
298 299 300 310 313 311 299 289 290 293 295 300 299 298 302 300 299 298 297 299 297 297 296 295 297 298 295 298 295 292 295 285 291 292 290 294 290 298 299 298 299 294 294 290 288 293 284 285 284 279 280 281 282 285 286 288 289 284 283 287 287 287 284 284 283 281 278 281 281 277 273 279 284 283 282 282 284 283 283 285 283 283 283 283 282 282 281 281
298 302 302 305 309 306 295 297 295 293 294 295 296 295 297 298 301 300 299 297 300 298 297 294 297 297 295 297 294 294 294 292 286 292 292 290 291 297 296 297 296 292 292 293 294 293 285 284 281 276 273 271 272 272 273 279 283 285 287 285 287 286 284 283 279 281 277 282 282 278 278 285 283 281 281 283 283 283 282 283 282 283 284 283 282 281 281 280
294 287 297 298 303 301 300 303 300 296 293 294 293 295 297 295 299 301 301 298 300 299 298 298 297 297 293 293 291 290 290 293 290 285 288 286 290 291 295 295 296 293 292 294 289 290 282 284 283 280 279 277 278 279 284 284 283 280 280 281 282 283 282 280 281 278 276 278 277 279 280 281 281 283 284 282 282 282 282 282 281 282 282 283 281 281 280 280
296 289 292 288 298 298 296 299 297 298 293 297 290 295 293 294 295 296 301 293 298 297 296 296 294 291 291 291 289 289 291 289 291 289 287 287 289 291 296 295 296 293 292 290 291 287 283 279 282 283 282 283 284 284 286 285 281 281 280 280 282 281 280 279 276 275 279 275 273 280 280 278 280 283 282 283 283 283 284 284 283 283 283 283 282 282 284 280
287 292 296 298 293 288 291 292 297 296 297 297 292 295 292 292 293 290 295 297 297 297 291 292 293 294 292 291 290 285 287 287 287 285 288 287 287 290 289 293 289 292 291 290 292 284 279 276 281 281 278 282 283 283 283 282 282 281 281 280 279 281 280 278 278 280 278 276 275 279 281 279 281 283 285 286 287 287 287 286 287 286 284 283 282 281 280 279
294 289 290 295 290 294 294 295 297 296 295 296 293 294 291 291 290 293 292 290 293 290 294 285 289 291 292 293 290 286 286 282 281 285 283 281 283 283 282 285 289 289 290 287 288 286 280 277 280 281 278 280 281 282 283 281 281 281 281 281 282 282 281 281 281 282 281 279 281 281 281 281 283 284 286 286 287 287 286 286 285 283 282 282 281 280 279 279
288 288 286 294 292 290 292 295 295 295 292 295 290 291 292 291 290 293 294 291 286 288 293 289 290 290 288 288 290 286 287 287 286 281 284 282 282 284 282 284 281 284 284 282 285 285 282 276 283 279 275 275 280 281 280 280 280 278 280 281 282 282 282 282 282 282 282 280 282 281 280 280 285 287 286 285 283 283 282 281 280 281 281 281 280 281 280 280
291 290 291 288 287 288 288 291 293 292 291 292 290 291 292 292 290 293 291 295 290 287 289 287 289 288 288 288 288 288 289 286 285 285 286 286 281 286 282 281 284 279 283 280 282 280 282 275 280 278 274 274 278 276 277 279 276 275 276 278 279 279 278 280 279 281 280 278 279 279 278 278 281 283 283 283 282 281 280 281 281 281 280 279 279 279 279 279
291 292 293 289 284 291 285 288 289 291 287 292 292 291 291 291 293 292 287 292 291 292 292 290 291 289 287 286 286 288 288 287 287 287 287 285 287 286 287 285 285 281 279 278 283 278 278 276 275 276 275 274 278 278 277 276 275 273 275 278 279 280 281 281 282 283 282 282 278 276 276 276 278 281 279 281 281 280 278 279 278 279 279 278 278 277 278 278
Wind_Speed
6 6 6 7 7 7 8 8 9 9 9 9 10 10 10 10 10 10 11 10 11 11 11 12 12 12 12 12 12 12 14 5 4 5 6 5 7 6 9 13 12 11 7 3 3 5 4 5 5 3 2 1 2 2 1 1 1 0 1 2 3 5 5 3 4 3 3 3 4 1 2 5 3 0 0 1 2 5 8 9 8 9 10 9 10 8 3 6
6 6 6 7 7 8 8 8 8 9 9 10 9 10 10 10 10 10 10 10 11 11 12 12 13 13 13 13 13 13 10 3 6 7 9 2 12 9 9 11 11 10 7 2 6 5 4 5 4 4 2 2 3 1 3 0 1 2 2 2 4 3 4 8 5 6 4 5 7 6 4 4 5 6 1 4 4 5 8 9 7 10 8 12 13 9 6 7
6 6 6 7 7 8 8 8 9 9 9 9 9 9 10 10 11 11 10 11 11 12 13 13 13 13 14 14 13 13 8 3 6 7 3 3 8 9 8 8 11 9 8 4 4 5 5 2 4 4 3 4 3 2 0 2 2 4 3 3 5 4 5 5 4 5 3 4 5 5 5 6 5 5 2 4 6 5 9 10 6 7 9 6 5 3 8 8
6 5 6 6 7 8 8 8 8 9 9 9 9 9 9 10 10 10 10 11 11 11 13 13 13 13 13 14 13 9 4 3 3 2 2 5 4 7 8 9 10 9 4 7 3 4 3 2 2 4 3 3 3 4 3 2 1 3 4 3 3 4 6 6 8 7 6 5 4 4 5 7 5 4 2 4 6 6 9 9 9 8 9 12 9 9 7 5
5 5 5 6 6 7 8 7 8 8 9 9 9 9 10 10 10 11 11 11 11 12 12 13 13 13 13 13 14 6 4 3 1 2 3 2 5 5 7 9 8 5 5 4 3 4 2 3 2 2 2 3 3 3 4 3 6 2 4 4 5 5 6 7 9 7 4 4 3 4 5 5 4 4 3 4 7 9 7 8 10 11 10 10 12 10 6 6
5 6 6 5 6 7 7 7 7 8 9 9 9 10 10 10 10 11 11 12 11 12 12 12 12 13 13 13 8 4 1 3 3 1 2 3 5 5 6 7 8 4 4 5 3 2 3 4 3 3 2 3 3 5 3 7 8 4 4 7 7 7 8 5 4 1 2 3 5 5 5 5 5 6 6 8 12 12 10 10 13 14 11 10 9 9 9 8
4 7 5 6 7 7 7 7 8 8 9 9 10 10 10 11 11 11 12 12 11 11 12 11 11 12 13 12 4 2 3 6 1 1 3 2 4 5 5 5 4 2 4 4 5 3 4 4 4 3 3 5 6 7 8 6 4 4 6 3 9 10 13 10 8 7 3 6 5 4 5 7 7 10 4 7 12 13 11 10 13 14 11 9 10 8 8 8
4 7 7 7 7 8 7 8 8 9 10 10 11 11 11 11 12 12 12 12 12 12 11 10 9 10 11 4 1 2 2 4 4 0 3 4 5 5 6 2 4 3 5 6 5 6 3 5 5 3 5 5 4 5 4 3 4 4 5 5 7 6 5 5 5 4 5 7 6 5 6 10 8 9 5 12 14 15 13 11 12 12 11 10 8 8 7 8
5 6 7 7 7 8 8 8 9 9 10 11 12 12 12 12 13 13 12 13 12 11 10 9 9 7 4 2 2 4 6 2 4 5 4 4 5 5 6 4 5 5 3 5 5 4 2 3 5 3 5 5 1 4 4 3 5 4 4 4 4 4 6 7 10 10 8 7 3 4 10 9 10 9 11 14 15 15 11 9 12 12 10 9 7 6 7 7
3 5 6 8 8 8 8 9 9 10 11 11 11 12 12 13 13 13 13 12 12 10 8 7 7 6 4 1 2 3 0 6 0 4 5 4 6 5 5 2 7 5 5 6 4 4 4 3 1 3 4 5 4 6 4 5 5 3 4 5 8 8 8 7 10 12 10 8 4 6 11 10 6 3 8 7 11 9 8 9 6 7 8 6 6 7 7 6
2 3 6 7 8 8 8 9 10 10 10 11 11 12 12 13 13 13 12 11 9 9 7 7 2 3 1 2 3 7 2 2 1 2 3 4 6 5 3 3 5 5 6 4 5 3 3 5 3 2 1 2 5 5 3 3 4 5 6 7 9 9 10 12 12 14 8 7 7 6 12 11 8 4 12 15 13 8 8 9 8 7 6 7 9 8 5 5
1 5 4 6 7 6 8 9 9 10 10 11 11 11 12 13 13 13 11 9 9 5 5 3 5 2 2 4 5 5 1 2 1 2 4 3 2 2 5 5 2 4 4 5 3 1 4 4 3 0 3 3 2 5 3 7 2 3 4 6 9 10 11 11 12 11 6 6 5 3 4 11 6 5 14 15 14 7 5 5 7 6 5 5 6 8 6 5
4 6 4 3 3 6 8 9 10 11 11 12 12 12 13 13 13 11 8 7 4 5 2 4 3 3 1 4 7 2 3 2 2 4 2 3 2 2 3 2 4 4 4 3 4 5 4 4 3 3 4 5 6 4 0 1 2 2 4 6 10 9 7 10 11 8 11 0 9 6 3 6 9 7 7 7 2 2 5 8 8 5 6 6 5 5 5 5
6 6 6 5 6 6 7 9 10 11 12 12 14 14 13 14 12 7 6 6 5 2 1 5 3 2 2 6 2 3 2 1 4 3 3 3 4 1 1 2 2 2 3 3 2 4 3 3 3 3 4 4 2 2 5 3 2 4 5 3 5 6 4 7 2 4 3 1 7 4 4 6 13 11 6 5 6 7 10 12 10 7 6 5 5 5 3 4
7 7 7 7 7 8 8 9 10 11 13 14 15 14 13 12 6 5 4 8 3 2 4 2 3 2 3 3 3 2 3 3 4 2 2 3 3 1 2 2 2 0 1 3 1 1 2 1 1 1 2 2 4 4 5 3 3 5 5 3 3 6 4 7 2 7 4 1 4 5 4 8 9 11 5 5 8 8 10 14 12 6 6 6 5 4 4 11
7 8 8 9 8 9 9 10 11 12 15 17 16 14 10 5 3 2 4 4 3 4 2 2 3 2 4 6 1 2 1 2 4 3 2 3 1 1 4 3 3 2 2 2 1 0 0 1 2 0 2 0 2 3 4 3 3 5 6 5 6 4 5 5 2 8 5 4 2 9 5 2 5 9 12 11 10 11 9 14 11 9 7 5 3 2 12 13
8 7 7 8 9 10 9 11 10 13 15 15 17 13 5 0 2 2 3 0 3 2 3 2 2 4 4 1 3 2 3 1 2 0 0 1 1 3 4 3 2 3 2 3 2 2 2 1 2 0 1 4 3 3 3 2 5 4 5 7 4 5 3 4 1 2 5 7 3 7 5 5 5 9 15 17 12 10 10 10 10 8 4 3 3 13 11 14
7 7 7 7 9 10 10 11 10 13 15 17 17 12 4 4 1 0 2 2 2 3 4 4 4 1 6 3 5 2 2 4 2 2 1 1 2 2 3 3 3 4 4 3 2 3 3 2 3 2 2 5 3 3 3 6 5 4 4 6 7 5 5 8 6 2 4 4 4 5 10 10 10 11 13 14 14 10 8 9 9 6 5 5 14 11 13 12
7 7 6 6 8 8 9 9 11 12 16 20 15 1 4 2 2 4 4 3 2 1 1 3 3 5 1 1 4 5 1 3 4 2 3 3 2 3 2 1 4 6 3 3 3 5 2 1 2 0 3 5 7 8 9 11 9 10 8 6 7 7 4 6 9 9 9 7 5 5 7 6 6 7 9 12 16 13 6 9 7 6 5 13 11 12 11 11
8 8 6 7 8 8 8 9 12 13 14 13 4 1 2 2 1 2 3 4 5 7 7 3 8 8 11 7 4 2 2 3 3 2 4 1 4 3 3 4 3 3 2 3 5 6 5 4 4 6 7 9 10 10 11 12 11 11 8 7 7 7 7 6 9 8 4 2 4 4 4 5 7 7 9 15 14 8 9 9 7 8 12 10 11 11 11 13
7 7 7 7 7 7 7 8 9 12 13 9 8 5 3 5 4 3 5 7 9 12 12 12 10 10 11 3 4 6 3 4 4 3 2 1 2 6 4 4 4 3 4 5 6 1 3 5 5 7 10 12 12 10 10 6 4 6 5 5 7 3 9 6 8 7 1 2 2 3 5 6 8 9 15 14 9 8 10 3 11 12 11 10 11 10 11 8
8 7 7 6 7 4 7 9 9 11 15 7 4 4 3 3 0 0 2 6 3 6 8 9 9 11 8 10 4 2 4 2 4 4 1 1 4 4 6 6 7 5 5 5 5 1 2 7 6 10 11 12 10 9 9 6 6 5 5 3 4 5 7 7 10 4 1 2 5 3 5 7 11 16 16 10 8 3 9 13 10 12 10 10 9 10 9 8
8 8 7 7 5 4 6 8 8 9 7 4 1 5 3 1 1 1 0 4 9 11 10 12 13 14 11 1 4 1 3 7 6 6 6 2 5 5 4 6 6 5 4 7 5 4 5 4 14 12 10 10 9 9 8 6 5 5 5 4 6 6 4 3 2 2 2 1 2 3 8 7 11 15 13 13 5 9 12 16 14 12 12 11 11 9 8 6
9 8 8 7 4 5 6 8 8 6 2 2 3 3 2 1 0 1 1 4 5 6 7 4 5 5 2 4 2 2 6 3 3 7 6 5 6 4 2 6 6 5 6 8 9 8 9 4 3 10 11 9 9 7 5 5 6 4 6 6 6 6 5 5 3 4 4 4 4 5 5 5 10 12 7 4 4 15 10 13 13 10 10 9 9 9 8 7
9 8 8 6 4 2 5 5 3 1 2 1 4 1 2 1 1 2 1 4 4 5 3 1 2 2 2 2 1 2 3 4 1 3 5 3 5 4 6 3 3 7 6 7 9 10 10 8 7 5 4 4 3 4 7 4 5 5 5 8 9 6 7 5 3 4 3 4 1 3 3 3 2 5 9 10 3 10 4 12 10 10 8 8 10 9 5 5
8 8 8 5 4 4 2 2 3 2 3 2 3 2 1 1 1 0 1 3 6 2 3 5 1 2 1 2 2 3 2 4 3 2 2 2 2 2 1 5 4 6 6 6 9 5 4 2 1 2 3 4 3 5 6 2 5 2 3 1 1 1 2 2 4 1 2 1 1 1 1 7 1 9 8 7 4 10 3 8 10 9 8 8 8 7 6 5
9 9 7 6 5 5 2 1 2 1 3 3 2 3 2 1 1 0 1 2 6 2 4 3 1 1 1 2 1 0 3 2 1 2 1 2 1 2 2 3 3 2 1 0 4 3 4 4 4 2 1 2 3 6 5 7 3 5 0 2 1 1 1 1 0 2 4 1 4 4 3 6 9 8 6 6 10 9 6 7 10 9 8 9 10 7 6 5
9 9 8 7 6 7 3 4 3 3 3 4 3 3 2 0 1 1 1 4 3 2 2 2 1 0 1 2 1 3 2 3 3 1 3 1 1 2 0 5 3 4 4 2 6 1 0 2 1 3 3 3 6 5 0 6 5 1 1 2 1 1 1 1 2 4 3 2 5 5 6 4 7 5 10 12 13 9 7 8 10 9 8 9 9 8 5 5
8 8 7 7 5 5 4 2 3 1 2 4 3 3 1 1 1 1 2 3 1 2 3 3 3 1 2 1 3 1 2 2 2 2 1 1 0 1 3 6 3 5 1 5 5 1 1 2 3 5 4 5 4 1 1 2 4 1 1 1 1 2 2 5 4 4 3 2 8 5 8 6 11 7 6 8 10 8 5 6 8 8 8 9 8 6 7 5
4 3 6 7 5 2 2 1 4 2 2 3 4 2 3 2 1 1 3 7 2 0 2 2 2 4 5 5 3 4 3 1 2 2 3 2 3 1 1 2 1 2 3 3 5 7 1 1 1 1 5 2 3 1 1 2 2 1 0 1 2 4 5 3 3 2 1 4 11 7 11 10 6 1 7 3 3 9 8 5 7 8 8 9 8 6 4 4
6 5 4 10 4 2 3 3 4 3 4 4 4 2 1 1 2 2 7 2 4 1 1 2 2 1 6 6 2 4 3 3 3 4 3 0 2 2 1 1 0 2 1 3 6 7 1 1 1 3 2 2 3 0 2 1 1 1 0 1 2 6 3 2 1 4 1 6 5 9 13 13 6 4 2 4 4 16 16 15 13 11 9 8 8 7 5 4
8 6 3 7 2 3 4 1 2 2 5 5 2 1 1 2 2 7 2 4 1 2 2 2 2 2 6 2 0 6 4 4 4 4 4 3 3 5 5 3 3 1 3 4 4 2 3 8 4 2 3 6 1 0 0 1 1 1 1 2 1 2 1 2 3 1 5 7 2 8 3 5 10 5 9 8 8 3 4 7 9 10 9 8 8 8 5 4
6 6 3 1 3 2 1 2 3 4 5 3 2 1 1 1 8 6 3 3 2 1 1 2 2 2 1 0 2 2 4 2 6 5 3 4 4 6 7 7 4 2 2 0 2 1 3 1 4 3 4 3 4 5 2 1 3 3 4 4 2 1 2 3 4 3 3 0 3 4 7 1 1 3 3 6 7 7 12 12 11 10 9 8 7 7 5 4
5 2 1 2 0 2 2 3 4 4 5 2 1 2 2 5 5 4 7 8 3 0 5 1 1 2 1 2 1 1 1 1 6 3 3 3 3 2 4 11 6 0 1 2 3 2 4 4 4 5 2 6 7 7 2 1 8 9 3 6 6 4 2 3 2 5 4 4 0 0 4 5 3 3 4 8 7 9 10 11 9 10 9 8 7 7 6 4
2 2 1 2 2 2 4 4 5 4 1 3 2 5 7 10 1 2 3 3 2 1 1 1 0 1 3 3 3 3 2 1 4 3 2 3 3 3 3 3 7 3 1 0 4 1 6 6 1 1 1 4 7 3 2 1 1 4 3 1 1 5 1 7 3 4 2 3 5 2 4 2 3 4 7 6 8 9 8 10 9 9 7 6 7 7 5 3
1 2 2 2 3 4 5 4 4 3 2 4 5 6 13 7 3 4 2 3 1 2 3 1 1 1 3 3 1 4 4 2 2 2 2 4 4 4 2 1 3 8 5 6 0 2 0 3 1 2 1 2 4 0 0 1 2 1 3 1 3 1 1 2 4 4 2 2 8 3 4 6 3 4 6 6 9 7 7 8 8 8 7 6 6 4 3 3
3 3 2 3 4 6 6 6 5 3 1 4 5 11 6 3 2 3 3 1 0 2 3 2 2 2 1 2 2 5 2 2 2 2 2 1 4 8 5 2 5 6 6 2 2 1 3 1 1 3 2 1 1 2 1 0 1 4 0 2 2 1 1 1 3 1 4 7 6 4 6 6 4 6 4 5 8 6 7 6 8 8 6 6 5 3 3 4
3 1 3 4 4 8 6 7 7 2 3 6 12 8 2 4 1 4 2 1 2 2 0 3 3 5 2 2 3 2 2 1 2 4 2 4 3 4 0 3 3 4 3 5 2 2 3 3 4 2 3 2 1 0 2 2 1 4 3 1 1 1 3 2 1 5 7 8 5 4 7 7 4 5 4 3 7 7 7 7 7 7 6 5 4 4 4 3
3 2 3 7 8 10 7 8 4 5 4 8 8 8 4 5 6 4 3 2 1 2 1 3 3 2 4 5 4 2 4 2 2 3 1 3 4 2 4 2 0 3 3 2 1 0 1 2 4 1 1 1 0 1 3 1 2 3 1 2 1 1 4 4 3 2 2 7 4 6 6 7 4 1 4 1 9 9 9 6 6 6 5 5 4 4 3 2
5 3 4 4 8 9 9 8 4 5 4 11 7 7 1 1 6 10 3 2 1 3 3 3 4 7 6 6 4 4 1 2 2 3 1 1 3 2 2 4 2 1 4 3 2 0 0 1 3 1 1 1 2 3 4 2 4 2 2 1 1 1 1 1 2 3 4 4 4 4 7 4 1 2 3 6 7 7 8 8 6 5 4 4 4 4 4 3
2 1 0 4 7 9 10 6 6 11 10 4 3 4 4 4 3 3 4 3 2 2 1 2 3 7 4 4 9 5 2 2 1 3 2 3 5 5 3 3 1 2 2 3 2 2 0 2 6 3 3 3 4 3 4 4 0 1 4 4 6 4 2 4 9 2 3 5 7 7 12 5 1 3 3 5 4 6 6 8 6 4 4 4 4 4 4 4
2 2 2 7 8 12 11 10 6 4 4 9 9 7 4 7 2 4 3 1 5 2 1 1 2 2 3 7 3 1 1 1 4 4 3 7 3 6 1 4 5 2 1 0 2 2 1 0 2 3 4 7 5 6 6 8 8 7 4 4 2 0 1 2 7 4 3 4 4 5 9 6 1 2 3 3 5 6 7 7 6 5 5 5 5 4 4 3
4 3 4 2 8 10 8 9 7 7 8 7 3 4 4 1 3 4 6 4 3 4 3 4 7 7 7 6 3 5 4 4 3 6 0 2 3 3 0 1 1 2 2 1 1 1 6 1 1 5 6 8 12 10 10 9 8 8 6 4 3 4 1 2 2 1 1 3 6 5 8 3 1 1 2 4 4 4 6 6 9 7 4 4 5 5 5 4
2 2 1 1 5 7 9 10 10 11 9 5 6 6 7 5 5 6 7 7 6 4 6 3 2 8 4 3 3 5 3 3 5 8 4 5 2 5 2 4 0 1 1 2 1 5 1 4 1 2 3 3 5 4 2 5 3 3 1 3 4 4 5 2 0 2 3 5 10 6 11 4 1 1 0 2 2 4 4 4 4 5 4 5 6 4 4 3
2 1 1 3 4 8 13 9 9 9 12 12 10 11 8 4 6 9 8 7 5 3 2 5 9 4 5 5 5 3 4 8 1 3 0 2 1 1 6 4 7 5 4 3 5 1 1 2 1 2 3 4 6 5 2 3 3 2 1 4 4 4 5 5 4 1 7 2 5 4 8 4 1 1 2 3 4 4 3 4 1 5 6 7 5 5 4 4
6 4 4 3 5 6 6 6 3 6 8 10 12 13 12 11 4 7 10 8 8 5 6 1 1 1 1 1 2 2 3 3 4 2 0 2 1 1 3 8 6 4 2 6 2 2 0 1 1 4 5 8 6 3 3 2 1 2 4 5 8 8 7 4 4 8 12 7 8 10 14 12 10 11 9 4 6 5 7 6 8 7 7 6 5 5 4 3
3 5 6 6 4 10 8 9 9 6 7 7 7 4 13 13 7 1 6 2 7 8 3 6 4 3 3 5 4 4 4 4 4 5 6 4 1 2 3 7 6 5 7 3 1 2 1 1 6 5 6 8 8 11 10 9 10 8 8 10 10 8 7 7 8 12 4 5 13 9 11 9 9 9 6 5 2 4 6 8 9 8 9 9 7 4 4 3
5 4 4 5 7 9 15 12 14 13 10 6 6 4 6 9 10 6 2 2 3 0 4 3 8 9 6 5 3 3 3 5 5 7 4 4 4 3 3 1 3 4 4 1 1 2 1 3 3 4 4 6 6 9 8 8 6 7 8 9 12 11 10 12 11 8 4 9 14 10 12 14 12 10 9 10 10 11 11 10 11 9 6 5 5 5 5 5
3 3 3 4 3 6 16 12 13 14 16 13 5 7 8 9 9 7 5 4 4 2 4 4 6 8 9 9 6 5 4 3 4 1 1 1 2 2 0 3 2 4 1 1 2 0 1 3 4 4 7 8 11 9 7 8 8 9 10 11 12 14 16 14 12 12 14 13 11 13 12 14 11 11 10 12 12 11 9 5 3 6 4 5 4 4 5 5
3 2 2 1 2 2 1 6 7 12 12 14 11 9 7 6 8 4 2 5 2 3 4 5 5 0 4 2 2 6 6 2 1 3 0 4 2 1 1 0 2 3 3 1 1 6 2 5 1 2 4 5 8 7 5 6 7 11 12 12 14 16 14 11 13 15 12 11 15 15 14 16 11 11 8 3 5 4 6 5 4 4 4 3 4 4 5 6
2 1 1 3 3 2 1 2 8 9 10 11 13 10 7 6 8 4 3 3 6 5 6 9 4 4 1 1 1 1 6 5 5 4 3 2 3 1 3 2 4 2 1 1 0 2 2 2 3 2 5 8 8 6 4 2 3 5 10 14 16 13 13 12 13 6 9 11 12 11 12 11 3 3 2 1 2 2 1 0 1 1 3 4 3 4 4 5
1 2 1 3 2 4 5 2 2 6 12 11 10 8 7 6 6 3 3 2 5 4 1 4 5 6 2 3 2 4 6 8 6 4 4 3 2 1 2 1 1 4 2 3 1 2 2 1 1 2 7 8 10 6 5 0 4 9 16 20 14 16 17 15 13 12 13 11 13 13 12 3 3 0 2 1 2 1 3 2 3 2 1 3 1 3 4 4
Wind_Direction
31 24 21 18 14 10 9 13 7 5 4 3 360 357 354 357 356 356 353 350 346 346 342 338 339 336 335 338 339 338 328 302 295 258 231 255 127 121 108 121 144 156 167 171 181 156 179 202 210 141 203 101 178 262 97 199 281 128 205 204 263 246 273 334 336 343 8 338 327 289 346 346 312 25 166 13 267 240 262 264 261 249 249 239 238 237 208 147
27 21 17 13 11 8 5 6 6 2 6 1 358 354 354 355 355 352 349 348 346 341 339 340 336 336 337 338 340 338 327 286 277 271 257 89 123 125 124 138 148 163 156 215 176 199 193 183 208 164 197 232 142 167 147 8 143 193 263 233 248 276 287 339 319 318 357 330 334 319 327 3 323 6 346 313 301 310 306 286 292 288 267 240 238 236 221 157
23 17 14 9 3 4 2 3 3 358 5 356 356 352 356 352 351 349 347 346 343 342 338 336 338 335 336 338 338 333 337 297 274 272 79 325 121 118 134 139 161 163 173 183 190 226 243 310 176 180 198 266 161 150 196 178 156 220 232 262 266 267 275 279 310 326 337 312 301 333 359 355 317 305 295 247 290 298 276 285 296 278 276 318 333 252 233 207
22 14 7 4 1 4 1 359 358 355 360 353 351 355 352 349 346 346 343 341 342 339 336 334 332 335 332 331 335 322 295 300 276 94 65 103 114 122 143 159 172 180 241 292 260 248 281 330 298 178 263 232 253 159 154 172 135 179 188 227 251 295 330 315 314 309 327 18 12 342 337 310 294 294 31 309 301 260 261 258 264 283 308 315 314 315 313 299
16 10 1 357 359 4 359 357 356 354 353 354 357 349 351 344 343 342 340 337 337 336 332 331 331 327 332 327 321 309 327 290 83 25 92 152 126 143 147 166 179 187 226 268 292 269 270 258 239 228 220 281 247 231 223 197 185 333 239 247 270 303 292 297 307 355 24 20 307 305 303 289 318 295 260 221 245 256 254 273 278 279 286 289 297 299 297 285
9 5 357 355 350 0 356 355 357 354 354 353 355 349 344 345 343 337 337 336 333 331 329 326 326 327 322 320 317 283 318 316 219 132 24 137 132 130 151 165 182 214 215 253 248 207 225 223 234 207 232 219 250 254 219 212 166 234 231 244 242 248 258 277 283 46 45 338 315 297 280 311 296 285 274 270 256 259 255 266 272 272 269 269 279 287 283 276
355 355 350 349 348 356 357 353 354 354 353 350 349 348 344 342 341 340 334 336 328 326 324 322 321 322 324 306 252 293 256 278 32 330 93 122 111 126 134 136 159 252 246 234 226 205 210 240 202 241 245 249 252 249 255 273 209 212 254 312 297 299 285 291 295 329 318 293 274 267 308 282 285 283 269 270 262 261 262 260 269 278 279 273 265 262 270 275
354 348 327 340 353 358 352 352 349 348 348 346 345 345 343 339 339 336 335 327 327 322 321 316 319 321 342 317 263 256 223 258 40 234 80 115 120 111 122 140 167 211 228 224 208 217 199 236 226 241 254 253 275 290 331 339 306 263 250 235 251 262 281 292 289 280 277 266 273 286 271 261 262 264 295 267 274 270 262 258 265 268 275 275 264 261 260 267
3 341 327 348 356 354 348 347 345 343 343 343 341 340 338 336 334 333 329 327 323 318 319 322 310 324 316 286 266 301 261 40 315 113 160 146 131 138 160 137 205 201 227 236 239 242 230 222 253 243 278 277 300 308 324 325 249 238 289 333 333 299 302 306 306 294 281 284 233 254 258 260 258 273 261 260 261 263 266 256 251 261 264 260 262 271 272 268
14 334 318 349 346 344 342 340 338 337 338 336 337 336 332 332 328 327 324 325 318 319 308 316 318 308 314 196 270 257 269 226 101 169 175 138 121 146 229 197 176 217 235 228 242 248 224 261 22 59 27 320 281 268 273 240 272 24 315 312 307 299 300 282 269 270 263 261 252 253 273 270 265 276 274 247 248 254 260 262 237 237 246 260 279 281 284 285
344 308 325 340 338 333 333 333 330 330 331 332 330 330 328 324 323 320 322 317 317 302 305 286 27 334 250 156 246 253 144 239 256 83 136 128 140 161 210 247 179 236 238 248 247 257 280 275 32 351 29 268 349 291 246 283 41 344 329 313 291 283 270 267 260 257 255 254 223 243 270 282 274 241 251 261 261 257 268 274 270 242 252 269 273 276 278 273
294 288 339 346 338 324 325 324 323 322 323 324 323 322 321 318 316 316 314 313 301 305 288 255 181 244 293 232 234 235 276 57 148 141 119 181 148 61 352 1 302 238 266 270 238 271 40 35 15 106 248 63 264 312 306 347 357 354 339 296 281 280 275 264 261 260 228 236 142 130 327 289 263 211 240 249 257 267 272 280 282 290 281 281 299 306 301 278
248 259 260 293 333 349 344 340 334 330 327 324 323 320 318 316 314 311 303 303 306 288 289 210 155 254 251 248 226 87 271 123 93 118 127 81 91 54 25 15 356 9 31 359 16 359 5 21 10 293 275 296 295 284 316 327 334 294 254 256 285 280 269 265 253 242 218 188 120 105 287 278 286 289 309 305 338 312 299 285 285 284 288 290 288 291 296 303
228 242 253 267 267 283 315 335 339 340 337 333 328 324 317 315 314 302 295 290 305 286 157 153 231 228 239 256 74 285 6 327 142 159 150 145 160 85 189 46 348 342 43 352 61 356 7 16 13 276 301 296 285 84 290 289 253 259 266 250 266 307 272 271 227 128 145 141 140 123 226 272 290 289 286 315 341 332 310 296 294 307 305 292 286 278 302 336
236 241 245 248 257 275 288 305 315 329 333 331 329 323 314 313 313 306 309 296 241 176 141 160 237 216 211 247 67 94 284 305 186 146 134 191 158 124 175 154 104 44 48 27 43 315 32 11 54 307 262 235 257 293 286 256 237 257 292 241 230 199 258 273 241 147 174 208 199 116 248 248 266 289 306 325 320 313 298 289 290 303 293 299 307 324 343 49
243 253 262 266 275 292 299 302 313 321 327 325 325 322 301 276 277 324 315 355 126 162 194 200 180 263 322 276 149 34 239 194 147 25 30 2 222 277 119 123 119 110 186 96 73 257 307 106 224 340 311 68 223 238 273 305 266 239 218 261 263 252 277 300 270 162 170 112 266 164 226 278 283 300 304 299 291 284 282 282 291 284 281 294 290 341 48 43
237 249 257 265 277 285 299 302 314 322 320 320 323 319 296 200 231 345 11 127 160 188 239 342 144 171 279 80 96 216 150 85 285 162 92 359 342 134 120 134 162 150 105 121 169 144 140 220 121 283 202 262 257 262 305 259 273 254 220 246 238 247 256 251 342 109 120 133 193 234 247 237 263 292 290 289 281 275 275 283 290 292 304 311 5 58 57 50
232 246 256 261 268 281 293 300 318 319 318 319 318 308 304 174 261 188 191 252 199 214 245 235 253 270 238 103 257 159 97 116 135 116 102 49 290 212 178 186 108 145 156 135 112 194 140 203 145 217 206 222 230 241 205 244 220 259 308 308 297 304 323 310 318 252 143 168 234 213 219 240 245 247 261 276 288 283 282 292 293 310 322 18 62 61 57 53
228 238 248 261 272 279 286 304 313 316 314 317 305 9 149 207 269 250 260 158 205 155 183 176 208 169 352 126 109 126 117 120 112 166 174 170 224 241 211 339 164 153 172 191 167 186 143 221 142 125 236 228 220 207 215 232 247 263 272 277 299 302 297 293 284 292 291 285 268 253 272 286 294 290 281 280 275 282 292 284 295 290 26 61 63 62 56 55
216 227 228 245 259 270 289 298 310 307 315 324 334 236 197 224 187 161 222 220 247 267 304 258 211 274 300 269 166 39 109 244 160 218 112 222 142 171 178 202 160 241 174 200 140 213 137 167 183 189 212 231 238 230 229 235 243 258 265 261 264 284 288 278 281 295 65 321 236 263 282 292 284 280 283 271 277 294 286 276 289 56 70 65 66 60 61 55
240 234 229 245 258 274 291 297 304 307 311 305 294 288 2 11 327 317 349 265 253 252 258 263 252 256 256 110 123 145 189 200 250 136 169 191 214 156 181 185 166 206 224 219 145 359 145 206 217 208 218 235 243 253 267 285 289 279 296 298 285 274 277 270 290 297 190 137 271 310 290 281 291 286 271 272 290 280 280 347 71 74 68 69 63 61 58 57
236 239 241 246 257 282 301 301 307 309 309 277 287 2 78 50 11 267 274 295 286 275 272 257 257 256 251 266 123 228 79 275 186 131 93 211 176 213 157 198 174 210 195 195 82 93 214 215 224 227 228 241 254 264 271 273 289 299 289 300 305 271 270 286 275 276 87 126 260 308 313 295 291 282 282 279 268 308 52 77 71 77 65 59 55 58 50 47
233 237 239 246 255 278 282 290 304 316 319 308 342 49 63 67 62 320 294 272 266 256 249 250 246 239 250 233 72 38 191 212 241 151 168 175 139 249 154 190 215 220 238 172 180 175 237 212 231 231 240 245 252 256 263 265 242 238 261 262 243 250 244 285 215 130 145 113 266 277 280 286 282 275 278 281 255 90 85 81 75 74 79 68 62 49 46 38
227 227 235 238 232 255 284 309 311 294 228 317 52 51 59 15 287 241 246 243 295 248 235 254 255 267 260 234 86 274 201 249 232 205 161 170 172 195 230 204 221 230 229 199 214 225 228 235 220 207 228 236 251 256 266 263 267 232 220 226 250 255 252 247 289 333 333 293 260 284 290 279 263 275 284 290 151 97 93 91 89 81 81 87 82 70 56 40
216 220 230 234 227 238 280 330 282 171 57 281 104 92 71 37 6 9 280 277 209 245 50 311 53 33 64 152 198 203 192 241 54 51 171 219 192 129 229 210 230 236 239 229 232 242 255 256 264 237 241 246 261 274 247 233 277 271 245 219 229 234 250 268 330 7 349 312 12 87 337 243 259 312 320 300 260 95 101 97 90 88 78 75 61 56 47 47
222 214 219 215 191 215 148 257 149 81 261 99 93 118 94 80 323 343 306 280 279 153 7 184 11 209 1 157 79 229 2 230 20 14 9 94 329 258 119 226 183 236 234 234 239 239 247 108 28 197 206 210 218 245 247 204 242 238 257 18 25 31 40 13 302 20 289 194 253 163 124 275 222 273 262 261 243 107 112 96 104 98 93 77 77 65 36 24
210 210 204 195 182 185 230 101 332 356 230 140 112 104 94 86 290 342 269 237 274 141 133 352 343 210 23 86 200 317 206 139 215 71 253 10 331 181 261 204 150 282 32 14 38 276 173 208 80 39 202 203 235 240 236 206 208 249 147 293 49 242 238 233 226 174 247 288 268 241 163 251 275 245 254 248 254 130 125 112 98 94 90 88 88 72 48 31
203 197 194 183 195 202 333 328 271 233 59 104 110 110 107 128 85 194 188 299 265 108 122 159 45 302 314 127 303 258 61 132 157 133 29 30 324 136 276 249 212 215 197 141 213 335 195 146 130 180 188 194 218 222 107 180 178 188 225 37 47 48 15 64 185 230 231 317 269 194 218 267 253 232 221 236 247 138 141 128 116 113 107 101 93 94 92 63
187 190 186 175 185 233 326 294 297 347 119 104 129 110 95 152 247 288 295 271 106 122 302 103 296 181 132 171 189 195 161 196 288 109 237 173 13 337 188 245 303 301 326 182 225 233 10 131 196 197 152 207 198 71 344 158 218 116 227 166 129 169 199 198 198 208 267 186 257 189 185 216 270 261 251 228 226 138 139 134 121 115 113 105 102 104 100 96
113 160 171 159 133 182 224 95 242 81 103 87 91 129 91 211 200 215 184 239 39 230 131 99 191 149 175 169 194 178 195 136 66 131 183 205 153 337 245 97 305 322 273 245 249 252 134 223 357 294 210 219 96 82 54 32 89 167 96 12 282 244 238 215 180 169 267 240 252 207 203 180 287 288 236 163 207 130 144 122 113 118 111 102 96 86 72 81
84 66 166 162 182 171 157 219 187 127 99 91 99 112 204 230 222 203 224 204 350 135 98 160 145 152 179 214 187 167 239 141 142 155 136 106 122 240 270 333 335 315 348 303 272 258 162 135 64 248 216 75 120 72 16 346 119 119 111 206 307 282 186 159 195 124 164 265 268 212 206 191 205 285 28 57 88 152 160 164 156 142 127 118 110 98 86 73
60 47 46 188 335 177 194 255 75 101 111 120 130 178 228 249 215 213 210 73 287 183 168 120 135 203 199 110 331 172 179 173 149 203 173 183 146 178 203 202 152 154 263 184 267 74 232 224 205 135 291 152 140 102 355 56 75 128 171 263 171 281 69 252 101 283 211 237 259 11 5 194 226 248 318 56 31 56 64 105 118 114 107 98 92 94 87 71
56 25 12 282 358 205 19 124 136 120 122 126 128 229 148 186 248 178 246 169 269 61 173 347 75 178 155 99 239 127 37 179 156 210 220 176 191 212 200 214 210 192 242 83 331 324 262 93 174 194 43 222 150 153 207 351 196 162 184 176 171 291 226 245 237 211 243 223 311 49 26 330 355 284 307 87 53 44 81 92 103 106 105 102 99 95 85 76
80 21 89 97 302 2 92 124 126 155 122 140 125 129 77 230 234 57 219 207 220 188 88 89 191 239 255 247 67 127 230 165 157 187 152 177 173 265 227 211 221 274 152 310 224 200 286 301 237 150 247 162 192 199 143 220 156 201 207 159 176 178 176 247 222 234 225 217 86 268 23 226 127 253 62 95 86 76 69 75 78 84 93 98 98 89 86 72
22 245 182 197 204 168 142 142 146 177 195 140 160 182 197 228 248 223 220 258 133 177 125 61 344 77 249 224 205 190 159 213 202 134 195 199 215 201 210 215 185 166 222 77 238 128 214 226 108 26 171 151 183 248 341 45 18 205 227 65 45 227 155 241 245 275 305 336 314 261 192 260 311 121 87 87 89 82 84 91 89 90 85 76 72 72 73 73
126 150 137 217 204 169 146 132 150 142 187 165 171 204 222 190 194 177 247 329 290 92 149 197 163 224 240 283 214 187 44 150 148 133 243 203 237 255 217 175 174 184 177 177 243 299 5 268 150 220 277 192 180 143 187 86 164 314 58 199 212 344 60 293 323 257 265 263 249 218 282 268 110 60 105 106 100 96 99 97 96 90 87 80 75 83 83 77
76 120 204 188 222 142 151 144 148 144 190 191 183 230 215 240 222 333 356 32 292 346 39 24 250 167 264 245 208 172 182 76 263 167 243 217 258 218 227 208 44 182 221 170 305 53 176 242 152 166 221 61 286 10 47 337 93 52 196 238 316 214 86 163 243 265 255 248 267 271 276 287 309 280 130 133 104 120 101 108 105 103 95 93 99 103 91 76
128 182 289 243 178 143 143 147 144 175 176 188 214 217 56 230 133 273 113 348 311 38 69 146 267 359 287 322 334 93 132 117 205 150 260 188 268 105 17 131 360 359 339 35 144 268 87 326 253 219 116 199 10 109 313 223 107 168 211 17 42 290 312 261 129 253 246 244 264 210 259 262 231 236 118 189 139 133 126 122 124 120 119 128 131 112 98 95
144 160 243 212 155 147 146 143 159 171 146 205 222 242 221 239 324 296 20 89 42 74 201 215 210 244 248 264 268 88 160 177 193 187 107 206 219 33 48 58 68 347 349 96 77 42 33 178 290 108 97 168 17 85 284 100 340 101 64 355 214 115 211 252 222 223 202 265 282 248 254 256 255 30 310 155 128 138 139 140 121 127 128 131 129 124 135 130
164 160 229 87 141 135 138 132 166 182 204 214 205 216 281 201 222 235 198 170 239 172 213 223 211 252 248 262 257 250 216 220 238 273 235 306 312 89 59 360 121 346 19 18 102 82 272 210 241 149 45 67 320 162 211 199 236 328 37 286 7 213 201 157 321 235 223 265 231 277 256 260 305 321 36 102 130 147 145 132 126 112 114 126 139 156 156 163
313 282 201 124 135 128 123 136 195 199 203 238 230 221 203 223 176 164 153 151 186 52 123 215 211 226 235 251 252 239 226 218 248 247 226 272 227 275 18 14 335 114 41 18 70 258 167 238 228 306 313 203 224 189 207 212 248 167 161 204 205 193 255 219 258 218 206 226 250 252 257 242 147 342 54 78 77 90 96 110 112 140 149 167 157 180 171 170
169 195 176 144 146 144 142 175 220 201 210 208 206 191 217 197 204 182 156 176 192 176 88 182 265 265 231 248 256 256 121 251 237 241 227 233 215 237 138 281 4 63 121 191 170 10 120 24 43 246 243 257 269 285 304 327 320 285 279 248 211 262 312 261 264 250 294 232 247 233 272 241 146 292 78 96 101 114 125 130 147 160 179 175 174 168 165 159
198 226 7 211 163 161 151 210 202 213 222 230 197 229 199 259 211 157 169 169 191 186 184 200 214 226 231 242 231 249 221 260 206 230 310 312 272 303 228 97 319 16 51 296 78 65 73 78 260 268 263 268 274 274 268 255 245 273 268 245 250 248 238 259 270 74 252 304 282 265 251 273 258 92 82 97 117 117 139 160 166 171 166 171 159 168 171 160
209 164 145 252 193 199 177 201 208 211 228 233 203 226 190 216 191 198 196 176 174 174 202 192 252 220 245 209 229 243 214 264 239 219 251 215 224 74 78 87 74 84 275 286 86 267 27 299 94 294 293 298 299 307 286 12 30 30 19 355 20 337 344 325 357 168 248 214 255 260 262 266 266 106 298 125 125 151 171 168 161 152 174 182 173 174 159 148
182 150 104 170 202 211 204 200 213 206 217 225 219 224 212 221 225 212 189 197 181 199 146 221 220 217 227 211 230 221 200 222 296 305 261 335 115 99 46 34 10 89 47 67 83 299 114 230 124 215 242 262 261 262 261 25 4 311 279 327 345 324 306 343 305 306 274 199 231 247 276 260 45 231 201 242 184 197 197 171 196 183 180 189 181 169 175 159
199 195 166 182 198 232 260 263 317 233 225 220 230 232 226 230 200 201 203 219 197 206 225 278 31 80 285 327 247 197 242 241 206 247 93 228 133 9 87 64 65 94 103 108 84 66 132 285 186 201 217 241 253 284 297 326 249 259 291 303 285 290 280 262 265 261 257 283 285 265 265 278 285 283 265 206 197 200 198 206 207 217 222 210 184 173 179 176
279 213 167 191 152 226 238 224 226 232 227 202 232 178 224 222 216 248 202 216 208 213 205 207 192 199 209 202 230 258 239 245 235 239 235 224 235 142 127 112 85 104 128 68 236 80 174 234 235 238 241 252 268 273 284 299 288 282 276 274 276 267 264 264 241 256 291 330 267 255 268 279 270 278 294 299 233 207 213 221 226 222 211 199 188 169 165 169
211 252 217 175 191 189 212 226 220 220 234 229 246 208 226 211 210 201 153 221 68 2 180 219 208 212 220 212 186 220 208 232 224 242 241 226 191 212 169 162 114 173 154 125 198 126 148 239 270 273 262 273 272 276 283 287 280 281 276 276 274 276 268 256 256 263 251 235 262 271 274 269 270 270 285 291 302 295 287 279 269 220 186 168 164 168 177 182
263 333 297 318 254 189 210 209 205 212 222 224 243 237 235 220 214 204 160 173 160 255 186 213 217 208 220 227 224 242 224 244 252 245 249 42 81 85 191 70 57 132 235 97 121 192 92 277 259 239 257 260 261 260 262 264 270 270 264 263 265 266 264 267 274 266 255 261 268 271 268 271 275 281 286 287 289 298 309 320 10 94 139 150 147 162 174 193
204 243 246 27 354 353 64 169 201 200 220 218 230 216 235 228 231 188 122 140 167 205 195 230 222 251 64 48 232 226 236 243 150 172 290 107 348 80 157 308 145 50 59 53 61 312 101 257 241 28 317 278 278 282 299 293 280 275 274 271 264 262 269 274 271 268 282 276 266 268 273 273 271 275 288 3 43 53 52 51 51 75 94 121 151 180 195 204
301 21 323 308 201 204 29 184 196 200 213 217 231 221 238 213 240 199 160 180 166 175 176 194 198 126 146 96 9 46 65 106 90 94 86 94 161 336 97 303 83 106 89 77 342 306 359 268 342 301 279 275 267 270 284 23 338 289 280 270 262 263 268 254 256 258 255 259 267 276 268 269 312 54 73 98 51 49 92 60 101 125 132 145 179 206 213 216
74 287 222 281 271 179 158 214 186 188 220 215 222 215 226 211 231 197 220 70 60 42 97 144 156 124 172 153 210 107 112 98 102 77 78 69 51 29 42 68 42 142 204 150 196 149 197 163 233 247 257 255 263 268 263 15 308 280 251 249 257 256 251 261 260 256 251 263 268 266 267 247 202 238 26 316 108 10 52 4 35 4 70 132 202 238 239 238